GW3103 Weather Reports


time (UTC)temp
F
wind
direction
speed
knots
gust
knots
rain 1hr
in
rain 24hr
in
rain mn
in
humidity
%
barometer
mb
20260506114112 65 18 0.9 1.7 0.00 0.00 0.00 81 1007.7
20260506113610 65 196 2.6 2.6 0.00 0.00 0.00 80 1007.6
20260506113107 65 306 1.7 2.6 0.00 0.00 0.00 79 1007.8
20260506112603 65 75 0.9 1.7 0.00 0.00 0.00 78 1007.6
20260506112101 65 65 0.9 0.9 0.00 0.00 0.00 78 1007.5
20260506111559 65 327 1.7 2.6 0.00 0.00 0.00 78 1007.7
20260506111056 65 132 1.7 1.7 0.00 0.00 0.00 78 1007.8
20260506110554 65 40 0.9 1.7 0.00 0.00 0.00 77 1007.4
20260506110051 65 53 1.7 1.7 0.00 0.00 0.00 77 1007.4
20260506105547 65 267 1.7 2.6 0.00 0.00 0.00 76 1007.6
20260506105044 66 334 2.6 2.6 0.00 0.00 0.00 76 1007.4
20260506104542 65 307 1.7 2.6 0.00 0.00 0.00 76 1007.3
20260506104040 65 33 1.7 2.6 0.00 0.00 0.00 76 1007.0
20260506103537 65 288 3.5 5.2 0.00 0.00 0.00 76 1007.2
20260506103033 65 259 1.7 2.6 0.00 0.00 0.00 75 1007.1
20260506102532 65 87 0.0 0.9 0.00 0.00 0.00 75 1007.0
20260506102029 65 47 0.0 0.0 0.00 0.00 0.00 75 1007.0
20260506101525 65 46 0.0 0.0 0.00 0.00 0.00 75 1006.9
20260506101022 65 214 2.6 2.6 0.00 0.00 0.00 74 1007.1
20260506100521 65 307 2.6 4.3 0.00 0.00 0.00 74 1006.9
20260506100019 65 63 0.9 1.7 0.00 0.00 0.00 75 1007.1
20260506095517 64 320 1.7 1.7 0.00 0.00 0.00 75 1007.1
20260506095013 65 341 0.9 1.7 0.00 0.00 0.00 74 1007.2
20260506094511 65 295 0.9 0.9 0.00 0.00 0.00 73 1007.4
20260506094009 65 333 0.9 1.7 0.00 0.00 0.00 73 1007.3
20260506093507 65 41 0.0 0.9 0.00 0.00 0.00 73 1007.2
20260506093004 65 5 0.9 0.9 0.00 0.00 0.00 73 1007.0
20260506092502 65 210 3.5 4.3 0.00 0.00 0.00 72 1007.2
20260506091958 65 30 0.0 0.9 0.00 0.00 0.00 72 1007.1
20260506091456 65 296 0.9 1.7 0.00 0.00 0.00 71 1007.4
20260506090953 66 8 3.5 4.3 0.00 0.00 0.00 71 1007.2
20260506090451 66 330 2.6 4.3 0.00 0.00 0.00 71 1007.3
20260506085947 65 26 0.0 0.9 0.00 0.00 0.00 70 1007.1
20260506085444 65 30 0.0 0.0 0.00 0.00 0.00 71 1007.3
20260506084940 65 57 0.0 0.0 0.00 0.00 0.00 70 1007.3
20260506084437 64 253 2.6 2.6 0.00 0.00 0.00 70 1007.5
20260506083933 65 333 0.9 1.7 0.00 0.00 0.00 70 1007.2
20260506083431 64 4 0.9 0.9 0.00 0.00 0.00 70 1007.2
20260506082928 64 45 0.0 0.0 0.00 0.00 0.00 70 1007.4
20260506082425 63 46 0.0 0.0 0.00 0.00 0.00 72 1007.4
20260506081921 63 20 0.9 0.9 0.00 0.00 0.00 70 1007.4
20260506081420 63 76 0.0 0.9 0.00 0.00 0.00 71 1007.5
20260506080916 63 49 0.0 0.0 0.00 0.00 0.00 73 1007.5
20260506080413 63 51 0.0 0.0 0.00 0.00 0.00 72 1007.5
20260506073357 61 47 0.0 0.9 0.00 0.00 0.00 74 1007.4
20260506072854 61 53 0.0 0.0 0.00 0.00 0.00 76 1007.5
20260506072351 61 50 0.0 0.0 0.00 0.00 0.00 75 1007.6
20260506071849 61 47 0.0 0.0 0.00 0.00 0.00 76 1007.7
20260506071347 61 46 0.0 0.0 0.00 0.00 0.00 76 1007.7
20260506070843 61 50 0.0 0.9 0.00 0.00 0.00 75 1007.7
20260506070341 61 55 0.0 0.0 0.00 0.00 0.00 75 1007.7
20260506062318 64 45 0.0 0.0 0.00 0.00 0.00 67 1007.8
20260506061814 64 50 0.0 0.0 0.00 0.00 0.00 67 1008.0
20260506061310 64 56 0.0 0.0 0.00 0.00 0.00 66 1008.0
20260506060809 65 51 0.0 0.0 0.00 0.00 0.00 66 1008.2
20260506060307 66 41 0.0 0.0 0.00 0.00 0.00 64 1008.3
20260506051238 67 35 0.0 0.0 0.00 0.00 0.00 61 1008.4
20260506050736 67 48 0.0 0.0 0.00 0.00 0.00 61 1008.4
20260506050233 67 35 0.9 1.7 0.00 0.00 0.00 61 1008.6
20260506044724 68 325 0.9 1.7 0.00 0.00 0.00 60 1008.7
20260506044221 68 275 2.6 2.6 0.00 0.00 0.00 59 1008.7
20260506043718 67 24 0.9 1.7 0.00 0.00 0.00 60 1008.7
20260506043216 67 40 0.0 0.9 0.00 0.00 0.00 60 1008.5
20260506042714 68 37 0.0 0.0 0.00 0.00 0.00 59 1008.4
20260506042212 68 97 0.0 0.0 0.00 0.00 0.00 59 1008.8
20260506041711 68 67 0.9 1.7 0.00 0.00 0.00 59 1008.6
20260506041208 68 183 0.9 1.7 0.00 0.00 0.00 58 1008.5
20260506040705 68 332 0.0 0.9 0.00 0.00 0.00 59 1008.7
20260506040202 68 142 1.7 1.7 0.00 0.00 0.00 58 1008.7
20260506035658 69 7 1.7 1.7 0.00 0.13 0.13 58 1008.6
20260506035155 69 191 1.7 4.3 0.00 0.13 0.13 57 1008.6
20260506034646 69 54 1.7 2.6 0.00 0.13 0.13 56 1008.7
20260506034143 69 138 0.9 0.9 0.00 0.13 0.13 56 1008.5
20260506033641 69 249 1.7 2.6 0.00 0.13 0.13 56 1008.4
20260506033137 70 133 0.9 1.7 0.00 0.13 0.13 55 1008.3
20260506032635 70 279 3.5 4.3 0.00 0.13 0.13 55 1008.4
20260506032131 70 256 5.2 7.0 0.00 0.13 0.13 54 1008.5
20260506031628 70 87 2.6 4.3 0.00 0.13 0.13 54 1008.3
20260506031125 71 213 1.7 1.7 0.00 0.13 0.13 54 1008.5
20260506030624 71 359 0.9 1.7 0.00 0.13 0.13 54 1008.4
20260506030121 71 183 2.6 4.3 0.00 0.13 0.13 53 1008.2
20260506025618 71 296 2.6 5.2 0.00 0.13 0.13 53 1008.3
20260506025113 71 225 5.2 7.8 0.00 0.13 0.13 52 1008.4
20260506024611 71 228 2.6 4.3 0.00 0.13 0.13 52 1008.4
20260506024107 72 42 2.6 5.2 0.00 0.13 0.13 52 1008.5
20260506023603 72 215 4.3 8.7 0.00 0.13 0.13 52 1008.6
20260506023101 71 266 3.5 4.3 0.00 0.13 0.13 52 1008.6
20260506022558 71 43 2.6 2.6 0.00 0.13 0.13 52 1008.5
20260506022056 72 308 2.6 2.6 0.00 0.13 0.13 51 1008.6
20260506021553 72 236 3.5 5.2 0.00 0.13 0.13 51 1008.4
20260506021050 72 60 0.0 0.9 0.00 0.13 0.13 52 1008.5
20260506020547 72 21 1.7 2.6 0.00 0.13 0.13 51 1008.5
20260506020045 72 209 4.3 7.8 0.00 0.13 0.13 50 1008.5
20260506015542 73 3 2.6 5.2 0.00 0.13 0.13 50 1008.4
20260506015039 72 192 2.6 2.6 0.00 0.13 0.13 50 1008.5
20260506014537 72 281 0.9 1.7 0.00 0.13 0.13 50 1008.3
20260506014032 72 222 0.9 1.7 0.00 0.13 0.13 50 1008.4
20260506013531 73 26 0.9 1.7 0.00 0.13 0.13 50 1008.2
20260506013026 73 27 0.9 0.9 0.00 0.13 0.13 51 1008.3
20260506012522 73 151 2.6 4.3 0.00 0.13 0.13 50 1008.2
20260506012019 73 234 2.6 4.3 0.00 0.13 0.13 49 1008.0
20260506011517 73 10 0.0 0.9 0.00 0.13 0.13 49 1007.9
20260506011013 74 352 0.0 0.9 0.00 0.13 0.13 49 1007.9
20260506010508 74 355 0.9 0.9 0.00 0.13 0.13 48 1007.7
20260506010004 74 202 3.5 7.0 0.00 0.13 0.13 48 1007.7
20260506005501 74 244 1.7 2.6 0.00 0.13 0.13 47 1007.6
20260506004956 74 300 3.5 6.1 0.00 0.13 0.13 48 1007.8
20260506004454 73 287 0.9 1.7 0.00 0.13 0.13 49 1007.7
20260506003950 74 66 0.0 0.9 0.00 0.13 0.13 48 1007.5
20260506003447 74 224 1.7 4.3 0.00 0.13 0.13 47 1007.5
20260506002943 75 43 0.0 0.9 0.00 0.13 0.13 47 1007.4
20260506002439 75 216 2.6 4.3 0.00 0.13 0.13 45 1007.6
20260506001935 75 207 2.6 2.6 0.00 0.13 0.13 45 1007.3
20260506001432 75 47 0.9 1.7 0.00 0.13 0.13 45 1007.4
20260506000929 75 204 2.6 5.2 0.00 0.13 0.13 45 1007.2
20260506000427 75 60 0.9 1.7 0.00 0.13 0.13 45 1007.3
20260505235923 76 203 3.5 5.2 0.00 0.13 0.13 44 1007.1
20260505235422 76 274 2.6 2.6 0.00 0.13 0.13 44 1007.0
20260505234918 76 74 1.7 1.7 0.00 0.13 0.13 43 1007.1
20260505234416 76 201 2.6 2.6 0.00 0.13 0.13 43 1007.1
20260505233912 76 261 2.6 2.6 0.00 0.13 0.13 44 1007.0
20260505233410 77 47 0.0 0.0 0.00 0.13 0.13 45 1007.1
20260505232907 77 45 0.0 0.0 0.00 0.13 0.13 43 1007.1
20260505232405 77 74 0.9 0.9 0.00 0.13 0.13 44 1006.9
20260505231902 77 352 1.7 1.7 0.00 0.13 0.13 43 1007.0
20260505231359 78 44 0.9 0.9 0.00 0.13 0.13 43 1006.9
20260505230857 78 195 0.9 1.7 0.00 0.13 0.13 43 1006.9
20260505230354 78 38 0.9 0.9 0.00 0.13 0.13 44 1006.9
20260505225851 78 197 3.5 5.2 0.00 0.13 0.13 43 1006.8
20260505225348 78 312 1.7 2.6 0.00 0.13 0.13 43 1006.8
20260505224843 79 233 2.6 2.6 0.00 0.13 0.13 42 1006.8
20260505224341 78 163 2.6 4.3 0.00 0.13 0.13 43 1006.6
20260505223838 79 348 0.9 0.9 0.00 0.13 0.13 44 1006.3
20260505223335 79 300 5.2 6.1 0.00 0.13 0.13 42 1006.6
20260505222831 79 99 0.9 0.9 0.00 0.13 0.13 42 1006.5
20260505222327 79 4 1.7 1.7 0.00 0.13 0.13 42 1006.6
20260505221824 79 45 0.9 0.9 0.00 0.13 0.13 43 1006.4
20260505221321 79 247 4.3 6.1 0.00 0.13 0.13 41 1006.3
20260505220818 79 283 4.3 7.0 0.00 0.13 0.13 42 1006.5
20260505220315 80 280 4.3 5.2 0.00 0.13 0.13 41 1006.4
20260505215813 79 243 1.7 2.6 0.00 0.13 0.13 41 1006.5
20260505215311 79 269 2.6 2.6 0.00 0.13 0.13 41 1006.5
20260505214808 79 100 2.6 5.2 0.00 0.13 0.13 41 1006.2
20260505214306 80 275 0.9 1.7 0.00 0.13 0.13 41 1006.3
20260505213802 80 345 0.9 1.7 0.00 0.13 0.13 41 1006.4
20260505213301 80 49 4.3 6.1 0.00 0.13 0.13 41 1006.5
20260505212755 80 221 0.9 0.9 0.00 0.13 0.13 40 1006.5
20260505212254 81 270 2.6 2.6 0.00 0.13 0.13 39 1006.5
20260505211750 82 259 2.6 4.3 0.00 0.13 0.13 39 1006.3
20260505211248 82 272 4.3 5.2 0.00 0.13 0.13 39 1006.1
20260505210743 82 191 0.9 1.7 0.00 0.13 0.13 39 1006.4
20260505210241 82 41 2.6 4.3 0.00 0.13 0.13 40 1006.2
20260505205738 82 210 4.3 5.2 0.00 0.13 0.13 38 1006.2
20260505205236 81 259 7.8 11.3 0.00 0.13 0.13 39 1006.3
20260505204732 81 359 5.2 7.0 0.00 0.13 0.13 40 1006.2
20260505204230 81 282 4.3 5.2 0.00 0.13 0.13 40 1006.2
20260505203727 82 178 2.6 6.1 0.00 0.13 0.13 39 1006.2
20260505203224 81 242 3.5 4.3 0.00 0.13 0.13 40 1006.4
20260505202720 82 39 1.7 1.7 0.00 0.13 0.13 40 1006.2
20260505202216 83 33 1.7 1.7 0.00 0.13 0.13 40 1006.0
20260505201713 85 57 2.6 2.6 0.00 0.13 0.13 38 1006.3
20260505201211 85 305 1.7 2.6 0.00 0.13 0.13 36 1006.2
20260505200708 85 266 2.6 2.6 0.00 0.13 0.13 37 1006.1
20260505200205 82 263 3.5 5.2 0.00 0.13 0.13 36 1006.1
20260505195701 82 7 5.2 7.8 0.00 0.13 0.13 36 1006.1
20260505195158 81 145 8.7 11.3 0.00 0.13 0.13 36 1006.4
20260505194655 82 298 7.8 11.3 0.00 0.13 0.13 35 1006.4
20260505194151 81 276 6.1 9.6 0.00 0.13 0.13 35 1006.2
20260505193648 82 292 7.8 11.3 0.00 0.13 0.13 35 1006.4
20260505193145 82 282 6.1 8.7 0.00 0.13 0.13 34 1006.6
20260505192644 80 281 7.8 11.3 0.00 0.13 0.13 37 1006.5
20260505192141 82 201 7.8 11.3 0.00 0.13 0.13 36 1006.7
20260505191639 83 12 5.2 7.0 0.00 0.13 0.13 35 1006.7
20260505191137 82 319 2.6 2.6 0.00 0.13 0.13 37 1006.7
20260505190633 82 236 7.0 11.3 0.00 0.13 0.13 36 1007.1
20260505190132 82 270 2.6 4.3 0.00 0.13 0.13 37 1006.8
20260505185630 82 254 6.1 8.7 0.00 0.13 0.13 36 1006.9
20260505185126 82 325 2.6 4.3 0.00 0.13 0.13 37 1007.4
20260505184623 81 11 2.6 4.3 0.00 0.13 0.13 36 1007.4
20260505184120 81 261 4.3 7.0 0.00 0.13 0.13 36 1007.1
20260505183616 81 289 7.8 11.3 0.00 0.13 0.13 36 1007.2
20260505183114 80 254 7.8 9.6 0.00 0.13 0.13 37 1007.2
20260505182610 81 241 7.8 12.2 0.00 0.13 0.13 36 1007.5
20260505182107 81 267 7.8 11.3 0.00 0.13 0.13 36 1007.4
20260505181604 81 235 9.6 14.8 0.00 0.13 0.13 36 1007.5
20260505181101 81 286 7.8 11.3 0.00 0.13 0.13 38 1007.5
20260505180556 81 276 6.1 7.0 0.00 0.13 0.13 38 1007.6
20260505180055 81 230 8.7 12.2 0.00 0.13 0.13 38 1007.5
20260505175550 81 268 5.2 7.8 0.00 0.13 0.13 37 1007.9
20260505175047 82 280 5.2 7.0 0.00 0.13 0.13 39 1007.8
20260505174544 81 289 4.3 7.0 0.00 0.13 0.13 41 1007.8
20260505174039 81 19 4.3 7.8 0.00 0.13 0.13 43 1007.8
20260505173537 80 150 2.6 5.2 0.00 0.13 0.13 42 1007.8
20260505173033 80 264 4.3 6.1 0.00 0.13 0.13 44 1008.0
20260505172531 79 246 5.2 6.1 0.00 0.13 0.13 44 1007.8
20260505172027 80 355 6.1 8.7 0.00 0.13 0.13 43 1007.9
20260505171522 81 256 7.8 9.6 0.00 0.13 0.13 43 1007.9
20260505171020 80 343 6.1 7.8 0.00 0.13 0.13 44 1008.2
20260505170516 81 254 1.7 1.7 0.00 0.13 0.13 46 1008.0
20260505170013 81 297 2.6 4.3 0.00 0.13 0.13 45 1008.0
20260505165508 80 346 3.5 4.3 0.00 0.13 0.13 46 1008.0
20260505165004 80 313 1.7 1.7 0.00 0.13 0.13 47 1008.0
20260505164500 81 267 2.6 6.1 0.00 0.13 0.13 47 1008.2
20260505163958 80 111 0.9 1.7 0.00 0.13 0.13 49 1008.5
20260505163456 80 312 1.7 2.6 0.00 0.13 0.13 50 1008.6
20260505162956 79 320 0.9 1.7 0.00 0.13 0.13 49 1008.6
20260505162451 80 43 1.7 2.6 0.00 0.13 0.13 47 1008.6
20260505161948 79 349 2.6 2.6 0.00 0.13 0.13 50 1008.7
20260505161444 79 246 5.2 7.8 0.00 0.13 0.13 49 1008.5
20260505160942 78 265 4.3 6.1 0.00 0.13 0.13 48 1008.6
20260505160440 78 208 3.5 4.3 0.00 0.13 0.13 49 1008.8
20260505152910 75 25 0.9 1.7 0.00 0.13 0.13 53 1009.0
20260505152407 75 82 1.7 1.7 0.00 0.13 0.13 53 1008.9
20260505151902 75 317 0.9 0.9 0.00 0.13 0.13 55 1009.1
20260505151358 75 22 2.6 4.3 0.00 0.13 0.13 53 1009.0
20260505150855 75 290 2.6 2.6 0.00 0.13 0.13 53 1009.4
20260505150352 74 80 1.7 4.3 0.00 0.13 0.13 54 1009.3
20260505140317 70 189 2.6 4.3 0.00 0.13 0.13 62 1009.7
20260505130240 64 147 0.9 0.9 0.00 0.13 0.13 73 1010.4
20260505124731 63 127 1.7 2.6 0.00 0.13 0.13 74 1010.1
20260505124228 62 61 0.0 0.0 0.00 0.13 0.13 75 1010.1
20260505123723 63 47 0.9 0.9 0.00 0.13 0.13 74 1010.0
20260505123220 62 54 0.9 0.9 0.00 0.13 0.13 76 1010.1
20260505122716 61 59 0.0 0.0 0.00 0.13 0.13 76 1009.9
20260505122213 62 41 0.9 0.9 0.00 0.13 0.13 77 1010.1
20260505121705 61 226 0.9 2.6 0.00 0.13 0.13 78 1009.9
20260505121201 60 45 0.9 0.9 0.00 0.13 0.13 78 1010.1
20260505120657 59 40 0.9 1.7 0.00 0.13 0.13 81 1009.9
20260505120153 58 227 2.6 2.6 0.00 0.13 0.13 84 1009.8
20260505115647 57 166 1.7 1.7 0.00 0.13 0.13 89 1010.0
20260505115145 56 39 0.9 1.7 0.00 0.13 0.13 92 1010.0
20260505114642 55 56 0.0 0.0 0.00 0.13 0.13 94 1010.1